,,PA_Meas_PMT16A,,PR_Meas_QMR101_102,,RH_Meas_QMH101,,SR_Meas_QMS101,,TA_Meas_QMH101,,GenWind,,GenWind,
time,status,PA,status,PR,status,RH,status,SR,status,TA,status,DirAvg,status,SpdAvg,
2015-03-25, 00:00:04,VALID,918.49,VALID,0,VALID,97.8084,VALID,0,VALID,21.3591,VALID,171,VALID,0,
2015-03-25, 00:01:04,VALID,918.464,VALID,0,VALID,97.8084,VALID,0,VALID,21.3803,VALID,171,VALID,0,
2015-03-25, 00:02:04,VALID,918.447,VALID,0,VALID,97.7932,VALID,0,VALID,21.3591,VALID,171,VALID,0,
2015-03-25, 00:03:04,VALID,918.417,VALID,0,VALID,97.7932,VALID,0.107441,VALID,21.3786,VALID,171,VALID,0,
2015-03-25, 00:04:04,VALID,918.43,VALID,0,VALID,97.7932,VALID,0.107441,VALID,21.3786,VALID,171,VALID,0,
2015-03-25, 00:05:04,VALID,918.448,VALID,0,VALID,97.8008,VALID,0,VALID,21.3591,VALID,171,VALID,0,
2015-03-25, 00:06:04,VALID,918.461,VALID,0,VALID,97.7779,VALID,0,VALID,21.3786,VALID,171,VALID,0,
2015-03-25, 00:07:04,VALID,918.487,VALID,0,VALID,97.7932,VALID,0.107441,VALID,21.3591,VALID,171,VALID,0,
2015-03-25, 00:08:04,VALID,918.493,VALID,0,VALID,97.7856,VALID,0,VALID,21.3591,VALID,171,VALID,0,
2015-03-25, 00:09:04,VALID,918.476,VALID,0,VALID,97.7856,VALID,0,VALID,21.3591,VALID,171,VALID,0,
2015-03-25, 00:10:04,VALID,918.448,VALID,0,VALID,97.7932,VALID,0,VALID,21.3786,VALID,171,VALID,0,
2015-03-25, 00:11:04,VALID,918.42,VALID,0,VALID,97.7856,VALID,0,VALID,21.3591,VALID,171,VALID,0,
2015-03-25, 00:12:04,VALID,918.416,VALID,0,VALID,97.7932,VALID,0.107441,VALID,21.3786,VALID,171,VALID,0,
2015-03-25, 00:13:04,VALID,918.351,VALID,0,VALID,97.7779,VALID,0,VALID,21.4177,VALID,171,VALID,0,
2015-03-25, 00:14:04,VALID,918.353,VALID,0,VALID,97.7703,VALID,0.107441,VALID,21.4177,VALID,171,VALID,0,
2015-03-25, 00:15:04,VALID,918.339,VALID,0,VALID,97.7779,VALID,0,VALID,21.4177,VALID,171,VALID,0,
2015-03-25, 00:16:04,VALID,918.336,VALID,0,VALID,97.7474,VALID,0,VALID,21.3981,VALID,171,VALID,0,
2015-03-25, 00:17:04,VALID,918.34,VALID,0,VALID,97.7322,VALID,0,VALID,21.3803,VALID,171,VALID,0,
2015-03-25, 00:18:04,VALID,918.348,VALID,0,VALID,97.7169,VALID,0,VALID,21.3201,VALID,171,VALID,0,
2015-03-25, 00:19:04,VALID,918.314,VALID,0,VALID,97.7246,VALID,0,VALID,21.3006,VALID,171,VALID,0,
2015-03-25, 00:20:04,VALID,918.307,VALID,0,VALID,97.7093,VALID,0,VALID,21.3022,VALID,171,VALID,0,
2015-03-25, 00:21:04,VALID,918.276,VALID,0,VALID,97.7169,VALID,0,VALID,21.3006,VALID,171,VALID,0,
2015-03-25, 00:22:04,VALID,918.264,VALID,0,VALID,97.7398,VALID,0.107441,VALID,21.3201,VALID,171,VALID,0,
2015-03-25, 00:23:04,VALID,918.272,VALID,0,VALID,97.7474,VALID,0,VALID,21.3201,VALID,171,VALID,0,
2015-03-25, 00:24:04,VALID,918.262,VALID,0,VALID,97.7474,VALID,0,VALID,21.3412,VALID,171,VALID,0,
2015-03-25, 00:25:04,VALID,918.223,VALID,0,VALID,97.7703,VALID,0,VALID,21.3412,VALID,171,VALID,0,
2015-03-25, 00:26:04,VALID,918.188,VALID,0,VALID,97.7627,VALID,0,VALID,21.3201,VALID,171,VALID,0,
2015-03-25, 00:27:04,VALID,918.161,VALID,0,VALID,97.7474,VALID,0,VALID,21.3412,VALID,171,VALID,0,
2015-03-25, 00:28:04,VALID,918.144,VALID,0,VALID,97.7703,VALID,0,VALID,21.3396,VALID,171,VALID,0,
2015-03-25, 00:29:04,VALID,918.118,VALID,0,VALID,97.8008,VALID,0,VALID,21.3608,VALID,171,VALID,0,
2015-03-25, 00:30:04,VALID,918.134,VALID,0,VALID,97.8084,VALID,0,VALID,21.3591,VALID,171,VALID,0,
2015-03-25, 00:31:04,VALID,918.099,VALID,0,VALID,97.8084,VALID,0,VALID,21.3591,VALID,171,VALID,0,
2015-03-25, 00:32:04,VALID,918.078,VALID,0,VALID,97.816,VALID,0,VALID,21.3591,VALID,171,VALID,0,
2015-03-25, 00:33:04,VALID,918.038,VALID,0,VALID,97.8237,VALID,0.107441,VALID,21.3803,VALID,171,VALID,0,
2015-03-25, 00:34:04,VALID,918.034,VALID,0,VALID,97.8237,VALID,0.107441,VALID,21.3591,VALID,171,VALID,0,
2015-03-25, 00:35:04,VALID,918.027,VALID,0,VALID,97.8313,VALID,0,VALID,21.3396,VALID,171,VALID,0,
2015-03-25, 00:36:04,VALID,918.032,VALID,0,VALID,97.8237,VALID,0.107441,VALID,21.3006,VALID,171,VALID,0,
2015-03-25, 00:37:04,VALID,918.046,VALID,0,VALID,97.8389,VALID,0,VALID,21.2616,VALID,171,VALID,0,
2015-03-25, 00:38:04,VALID,918.1,VALID,0,VALID,97.8389,VALID,0,VALID,21.2827,VALID,171,VALID,0,
2015-03-25, 00:39:04,VALID,918.118,VALID,0,VALID,97.8389,VALID,0,VALID,21.2616,VALID,171,VALID,0,
2015-03-25, 00:40:04,VALID,918.163,VALID,0,VALID,97.8313,VALID,0.107441,VALID,21.2811,VALID,171,VALID,0,
2015-03-25, 00:41:04,VALID,918.204,VALID,0,VALID,97.8465,VALID,0,VALID,21.3217,VALID,171,VALID,0,
2015-03-25, 00:42:04,VALID,918.184,VALID,0,VALID,97.8923,VALID,0,VALID,21.3006,VALID,171,VALID,0,
2015-03-25, 00:43:04,VALID,918.172,VALID,0,VALID,97.8847,VALID,0,VALID,21.3006,VALID,171,VALID,0,
2015-03-25, 00:44:04,VALID,918.167,VALID,0,VALID,97.8999,VALID,0.107441,VALID,21.3201,VALID,171,VALID,0,
2015-03-25, 00:45:04,VALID,918.152,VALID,0,VALID,97.9152,VALID,0,VALID,21.3396,VALID,171,VALID,0,
2015-03-25, 00:46:04,VALID,918.144,VALID,0,VALID,97.9228,VALID,0,VALID,21.3396,VALID,171,VALID,0,
2015-03-25, 00:47:04,VALID,918.134,VALID,0,VALID,97.9228,VALID,0.107441,VALID,21.3396,VALID,171,VALID,0,
2015-03-25, 00:48:04,VALID,918.13,VALID,0,VALID,97.9228,VALID,0.107441,VALID,21.3803,VALID,171,VALID,0,
2015-03-25, 00:49:04,VALID,918.115,VALID,0,VALID,97.9152,VALID,0.107441,VALID,21.3786,VALID,171,VALID,0,
2015-03-25, 00:50:04,VALID,918.097,VALID,0,VALID,97.9304,VALID,0.107441,VALID,21.3786,VALID,171,VALID,0,
2015-03-25, 00:51:04,VALID,918.113,VALID,0,VALID,97.9456,VALID,0,VALID,21.3786,VALID,171,VALID,0,
2015-03-25, 00:52:04,VALID,918.078,VALID,0,VALID,97.938,VALID,0.107441,VALID,21.3591,VALID,171,VALID,0,
2015-03-25, 00:53:04,VALID,918.088,VALID,0,VALID,97.9456,VALID,0,VALID,21.3201,VALID,171,VALID,0,
2015-03-25, 00:54:04,VALID,918.038,VALID,0,VALID,97.9228,VALID,0,VALID,21.3006,VALID,171,VALID,0,
2015-03-25, 00:55:04,VALID,917.996,VALID,0,VALID,97.9456,VALID,0,VALID,21.2811,VALID,171,VALID,0,
2015-03-25, 00:56:04,VALID,917.963,VALID,0,VALID,97.9228,VALID,0.107441,VALID,21.3006,VALID,171,VALID,0,
2015-03-25, 00:57:04,VALID,917.961,VALID,0,VALID,97.9456,VALID,0,VALID,21.3006,VALID,171,VALID,0,
2015-03-25, 00:58:04,VALID,917.929,VALID,0,VALID,97.9761,VALID,0,VALID,21.3006,VALID,171,VALID,0,
2015-03-25, 00:59:04,VALID,917.911,VALID,0,VALID,97.9533,VALID,0,VALID,21.2811,VALID,171,VALID,0,
2015-03-25, 01:00:04,VALID,917.874,VALID,0,VALID,97.9685,VALID,0.107441,VALID,21.3217,VALID,171,VALID,0,
2015-03-25, 01:01:04,VALID,917.86,VALID,0,VALID,97.9761,VALID,0,VALID,21.2811,VALID,173,VALID,0,
2015-03-25, 01:02:04,VALID,917.879,VALID,0,VALID,97.9609,VALID,0.107441,VALID,21.2811,VALID,173,VALID,0,
2015-03-25, 01:03:04,VALID,917.889,VALID,0,VALID,97.9914,VALID,0,VALID,21.2616,VALID,178,VALID,0,
2015-03-25, 01:04:04,VALID,917.906,VALID,0,VALID,97.999,VALID,0,VALID,21.2632,VALID,180,VALID,0,
2015-03-25, 01:05:04,VALID,917.908,VALID,0,VALID,98.0066,VALID,0.107441,VALID,21.221,VALID,180,VALID,0,
2015-03-25, 01:06:04,VALID,917.903,VALID,0,VALID,98.0066,VALID,0,VALID,21.2421,VALID,180,VALID,0,
2015-03-25, 01:07:04,VALID,917.878,VALID,0,VALID,98.0143,VALID,0,VALID,21.2616,VALID,180,VALID,0,
2015-03-25, 01:08:04,VALID,917.857,VALID,0,VALID,97.9914,VALID,0.107441,VALID,21.3006,VALID,180,VALID,0,
2015-03-25, 01:09:04,VALID,917.861,VALID,0,VALID,97.9914,VALID,0,VALID,21.3201,VALID,171,VALID,0,
2015-03-25, 01:10:04,VALID,917.855,VALID,0,VALID,97.999,VALID,0.107441,VALID,21.3396,VALID,171,VALID,0,
2015-03-25, 01:11:04,VALID,917.874,VALID,0,VALID,98.0143,VALID,0,VALID,21.3981,VALID,171,VALID,0,
2015-03-25, 01:12:04,VALID,917.851,VALID,0,VALID,98.0143,VALID,0.107441,VALID,21.4177,VALID,171,VALID,0,
2015-03-25, 01:13:04,VALID,917.847,VALID,0,VALID,98.0295,VALID,0,VALID,21.4372,VALID,171,VALID,0,
2015-03-25, 01:14:04,VALID,917.859,VALID,0,VALID,98.0371,VALID,0.107441,VALID,21.4372,VALID,171,VALID,0,
2015-03-25, 01:15:04,VALID,917.877,VALID,0,VALID,98.0448,VALID,0,VALID,21.4372,VALID,171,VALID,0,
2015-03-25, 01:16:04,VALID,917.891,VALID,0,VALID,98.0371,VALID,0,VALID,21.4372,VALID,171,VALID,0,
2015-03-25, 01:17:04,VALID,917.903,VALID,0,VALID,98.0295,VALID,0.107441,VALID,21.416,VALID,171,VALID,0,
2015-03-25, 01:18:04,VALID,917.882,VALID,0,VALID,98.0219,VALID,0.107441,VALID,21.4177,VALID,171,VALID,0,
2015-03-25, 01:19:04,VALID,917.851,VALID,0,VALID,98.0371,VALID,0.107441,VALID,21.4193,VALID,171,VALID,0,
2015-03-25, 01:20:04,VALID,917.819,VALID,0,VALID,98.0448,VALID,0,VALID,21.4372,VALID,171,VALID,0,
2015-03-25, 01:21:04,VALID,917.763,VALID,0,VALID,98.0066,VALID,0.107441,VALID,21.4567,VALID,171,VALID,0,
2015-03-25, 01:22:04,VALID,917.751,VALID,0,VALID,98.0143,VALID,0.107441,VALID,21.4372,VALID,171,VALID,0,
2015-03-25, 01:23:04,VALID,917.7,VALID,0,VALID,97.999,VALID,0.107441,VALID,21.4372,VALID,171,VALID,0,
2015-03-25, 01:24:04,VALID,917.685,VALID,0,VALID,97.9914,VALID,0.107441,VALID,21.4372,VALID,171,VALID,0,
2015-03-25, 01:25:04,VALID,917.63,VALID,0,VALID,97.9533,VALID,0,VALID,21.4177,VALID,171,VALID,0,
2015-03-25, 01:26:04,VALID,917.605,VALID,0,VALID,97.9685,VALID,0,VALID,21.4372,VALID,171,VALID,0,
2015-03-25, 01:27:04,VALID,917.567,VALID,0,VALID,97.9761,VALID,0,VALID,21.4372,VALID,171,VALID,0,
2015-03-25, 01:28:04,VALID,917.552,VALID,0,VALID,97.9533,VALID,0.107441,VALID,21.4567,VALID,171,VALID,0,
2015-03-25, 01:29:04,VALID,917.548,VALID,0,VALID,97.9533,VALID,0.107441,VALID,21.4372,VALID,171,VALID,0,
2015-03-25, 01:30:04,VALID,917.482,VALID,0,VALID,97.9456,VALID,0,VALID,21.4372,VALID,171,VALID,0,
2015-03-25, 01:31:05,VALID,917.469,VALID,0,VALID,97.9304,VALID,0.107441,VALID,21.3981,VALID,171,VALID,0,
2015-03-25, 01:32:04,VALID,917.419,VALID,0,VALID,97.9152,VALID,0,VALID,21.4177,VALID,171,VALID,0,
2015-03-25, 01:33:05,VALID,917.359,VALID,0,VALID,97.9228,VALID,0,VALID,21.4372,VALID,171,VALID,0,
2015-03-25, 01:34:05,VALID,917.308,VALID,0,VALID,97.9075,VALID,0,VALID,21.4372,VALID,171,VALID,0,
2015-03-25, 01:35:05,VALID,917.249,VALID,0,VALID,97.8999,VALID,0.107441,VALID,21.4567,VALID,171,VALID,0,
2015-03-25, 01:36:05,VALID,917.224,VALID,0,VALID,97.9152,VALID,0,VALID,21.4567,VALID,171,VALID,0,
2015-03-25, 01:37:05,VALID,917.183,VALID,0,VALID,97.8847,VALID,0.107441,VALID,21.4177,VALID,171,VALID,0,
2015-03-25, 01:38:05,VALID,917.156,VALID,0,VALID,97.8999,VALID,0,VALID,21.3981,VALID,171,VALID,0,
2015-03-25, 01:39:05,VALID,917.177,VALID,0,VALID,97.9075,VALID,0,VALID,21.3786,VALID,171,VALID,0,
2015-03-25, 01:40:05,VALID,917.163,VALID,0,VALID,97.8923,VALID,0.107441,VALID,21.3786,VALID,171,VALID,0,
2015-03-25, 01:41:05,VALID,917.146,VALID,0,VALID,97.8847,VALID,0,VALID,21.3786,VALID,171,VALID,0,
2015-03-25, 01:42:05,VALID,917.16,VALID,0,VALID,97.8923,VALID,0.107441,VALID,21.3786,VALID,171,VALID,0,
2015-03-25, 01:43:05,VALID,917.191,VALID,0,VALID,97.8923,VALID,0,VALID,21.3591,VALID,171,VALID,0,
2015-03-25, 01:44:05,VALID,917.196,VALID,0,VALID,97.8847,VALID,0,VALID,21.3998,VALID,171,VALID,0,
2015-03-25, 01:45:05,VALID,917.189,VALID,0,VALID,97.8694,VALID,0.107441,VALID,21.3786,VALID,171,VALID,0,
2015-03-25, 01:46:05,VALID,917.222,VALID,0,VALID,97.8618,VALID,0.107441,VALID,21.3396,VALID,171,VALID,0,
2015-03-25, 01:47:05,VALID,917.249,VALID,0,VALID,97.8694,VALID,0.107441,VALID,21.3006,VALID,171,VALID,0,
2015-03-25, 01:48:05,VALID,917.244,VALID,0,VALID,97.877,VALID,0,VALID,21.2616,VALID,171,VALID,0,
2015-03-25, 01:49:05,VALID,917.263,VALID,0,VALID,97.877,VALID,0.107441,VALID,21.2226,VALID,171,VALID,0,
2015-03-25, 01:50:05,VALID,917.286,VALID,0,VALID,97.8618,VALID,0,VALID,21.2031,VALID,171,VALID,0,
2015-03-25, 01:51:05,VALID,917.262,VALID,0,VALID,97.8847,VALID,0,VALID,21.1836,VALID,171,VALID,0,
2015-03-25, 01:52:05,VALID,917.258,VALID,0,VALID,97.8847,VALID,0,VALID,21.2031,VALID,171,VALID,0,
2015-03-25, 01:53:05,VALID,917.239,VALID,0,VALID,97.8847,VALID,0,VALID,21.2031,VALID,171,VALID,0,
2015-03-25, 01:54:05,VALID,917.233,VALID,0,VALID,97.9075,VALID,0,VALID,21.1836,VALID,172,VALID,0,
2015-03-25, 01:55:05,VALID,917.239,VALID,0,VALID,97.9304,VALID,0,VALID,21.1836,VALID,172,VALID,0,
2015-03-25, 01:56:05,VALID,917.238,VALID,0,VALID,97.9456,VALID,0,VALID,21.1836,VALID,172,VALID,0,
2015-03-25, 01:57:05,VALID,917.246,VALID,0,VALID,97.938,VALID,0.107441,VALID,21.2437,VALID,172,VALID,0,
2015-03-25, 01:58:05,VALID,917.235,VALID,0,VALID,97.9609,VALID,0.107441,VALID,21.2226,VALID,172,VALID,0,
2015-03-25, 01:59:05,VALID,917.24,VALID,0,VALID,97.9533,VALID,0.107441,VALID,21.2031,VALID,192,VALID,0,
2015-03-25, 02:00:05,VALID,917.255,VALID,0,VALID,97.9761,VALID,0.107441,VALID,21.2031,VALID,189,VALID,0,
2015-03-25, 02:01:05,VALID,917.255,VALID,0,VALID,97.9685,VALID,0,VALID,21.2031,VALID,189,VALID,0,
2015-03-25, 02:02:05,VALID,917.254,VALID,0,VALID,97.9685,VALID,0,VALID,21.2242,VALID,172,VALID,0,
2015-03-25, 02:03:05,VALID,917.235,VALID,0,VALID,97.9838,VALID,0,VALID,21.2031,VALID,172,VALID,0,
2015-03-25, 02:04:05,VALID,917.209,VALID,0,VALID,97.999,VALID,0,VALID,21.2031,VALID,174,VALID,0,
2015-03-25, 02:05:05,VALID,917.173,VALID,0,VALID,98.0066,VALID,0,VALID,21.2258,VALID,174,VALID,0,
2015-03-25, 02:06:05,VALID,917.171,VALID,0,VALID,98.0143,VALID,0,VALID,21.1852,VALID,173,VALID,0,
2015-03-25, 02:07:05,VALID,917.176,VALID,0,VALID,98.0371,VALID,0,VALID,21.1852,VALID,172,VALID,0,
2015-03-25, 02:08:05,VALID,917.142,VALID,0,VALID,98.0295,VALID,0,VALID,21.1657,VALID,172,VALID,0,
2015-03-25, 02:09:05,VALID,917.132,VALID,0,VALID,98.0295,VALID,0,VALID,21.1852,VALID,172,VALID,0,
2015-03-25, 02:10:05,VALID,917.142,VALID,0,VALID,98.0219,VALID,0,VALID,21.1852,VALID,172,VALID,0,
2015-03-25, 02:11:05,VALID,917.104,VALID,0,VALID,98.0371,VALID,0,VALID,21.2047,VALID,172,VALID,0,
2015-03-25, 02:12:05,VALID,917.095,VALID,0,VALID,98.0371,VALID,0,VALID,21.1852,VALID,172,VALID,0,
2015-03-25, 02:13:05,VALID,917.114,VALID,0,VALID,98.0448,VALID,0,VALID,21.1852,VALID,172,VALID,0,
2015-03-25, 02:14:05,VALID,917.088,VALID,0,VALID,98.0524,VALID,0,VALID,21.1657,VALID,174,VALID,0,
2015-03-25, 07:28:04,VALID,918.11,VALID,0,VALID,96.3676,VALID,93.9036,VALID,20.1513,VALID,45,VALID,0,
2015-03-25, 07:29:04,VALID,918.106,VALID,0,VALID,96.2609,VALID,96.8045,VALID,20.1708,VALID,77,VALID,0.250781,
2015-03-25, 07:30:04,VALID,918.134,VALID,0,VALID,96.1923,VALID,99.8128,VALID,20.1903,VALID,102,VALID,0,
2015-03-25, 07:31:04,VALID,918.14,VALID,0,VALID,96.1846,VALID,102.821,VALID,20.2098,VALID,96,VALID,0,
2015-03-25, 07:32:04,VALID,918.16,VALID,0,VALID,96.238,VALID,105.937,VALID,20.2489,VALID,102,VALID,0,
2015-03-25, 07:33:04,VALID,918.15,VALID,0,VALID,96.3752,VALID,109.053,VALID,20.2879,VALID,102,VALID,0,
2015-03-25, 07:34:04,VALID,918.16,VALID,0,VALID,96.4819,VALID,112.383,VALID,20.3464,VALID,102,VALID,0,
2015-03-25, 07:35:04,VALID,918.173,VALID,0,VALID,96.4896,VALID,115.929,VALID,20.4064,VALID,102,VALID,0,
2015-03-25, 07:36:04,VALID,918.184,VALID,0,VALID,96.3829,VALID,119.475,VALID,20.4049,VALID,103,VALID,0,
2015-03-25, 07:37:04,VALID,918.238,VALID,0,VALID,96.2533,VALID,122.805,VALID,20.4439,VALID,194,VALID,0,
2015-03-25, 07:38:04,VALID,918.237,VALID,0,VALID,96.1084,VALID,126.136,VALID,20.4634,VALID,191,VALID,0,
2015-03-25, 07:39:04,VALID,918.23,VALID,0,VALID,96.1541,VALID,129.037,VALID,20.5219,VALID,191,VALID,0,
2015-03-25, 07:40:04,VALID,918.277,VALID,0,VALID,96.2304,VALID,131.723,VALID,20.5609,VALID,191,VALID,0,
2015-03-25, 07:41:04,VALID,918.272,VALID,0,VALID,96.1618,VALID,134.301,VALID,20.5609,VALID,196,VALID,0,
2015-03-25, 07:42:04,VALID,918.302,VALID,0,VALID,96.2456,VALID,136.558,VALID,20.6194,VALID,178,VALID,0,
2015-03-25, 07:43:04,VALID,918.263,VALID,0,VALID,96.2151,VALID,139.136,VALID,20.6194,VALID,172,VALID,0,
2015-03-25, 07:44:04,VALID,918.293,VALID,0,VALID,96.1465,VALID,142.252,VALID,20.6585,VALID,172,VALID,0,
2015-03-25, 07:45:04,VALID,918.272,VALID,0,VALID,96.1846,VALID,145.905,VALID,20.6975,VALID,172,VALID,0,
2015-03-25, 07:46:04,VALID,918.276,VALID,0,VALID,95.9407,VALID,150.095,VALID,20.717,VALID,163,VALID,0,
2015-03-25, 07:47:04,VALID,918.257,VALID,0,VALID,95.8492,VALID,154.823,VALID,20.7755,VALID,158,VALID,0,
2015-03-25, 07:48:04,VALID,918.239,VALID,0,VALID,95.5443,VALID,160.839,VALID,20.795,VALID,146,VALID,0,
2015-03-25, 07:49:04,VALID,918.217,VALID,0,VALID,94.9192,VALID,166.104,VALID,20.795,VALID,157,VALID,0,
2015-03-25, 07:50:04,VALID,918.225,VALID,0,VALID,94.1111,VALID,169.112,VALID,20.8145,VALID,167,VALID,0.192969,
2015-03-25, 07:51:04,VALID,918.212,VALID,0,VALID,93.1581,VALID,171.154,VALID,20.8746,VALID,156,VALID,0,
2015-03-25, 07:52:04,VALID,918.195,VALID,0,VALID,92.1442,VALID,174.27,VALID,20.873,VALID,143,VALID,0,
2015-03-25, 07:53:04,VALID,918.204,VALID,0,VALID,93.5851,VALID,176.956,VALID,20.9511,VALID,194,VALID,0,
2015-03-25, 07:54:04,VALID,918.214,VALID,0,VALID,93.5774,VALID,180.716,VALID,20.9706,VALID,204,VALID,1.59219,
2015-03-25, 07:55:04,VALID,918.153,VALID,0,VALID,93.4021,VALID,185.766,VALID,20.9495,VALID,166,VALID,1.59023,
2015-03-25, 07:56:04,VALID,918.172,VALID,0,VALID,93.7299,VALID,191.46,VALID,20.9901,VALID,162,VALID,1.25391,
2015-03-25, 07:57:04,VALID,918.202,VALID,0,VALID,93.7375,VALID,193.287,VALID,20.969,VALID,173,VALID,1.975,
2015-03-25, 07:58:04,VALID,918.197,VALID,0,VALID,93.5774,VALID,189.311,VALID,20.9901,VALID,169,VALID,1.15547,
2015-03-25, 07:59:04,VALID,918.167,VALID,0,VALID,93.7528,VALID,181.253,VALID,21.008,VALID,218,VALID,1.2707,
2015-03-25, 08:00:04,VALID,918.183,VALID,0,VALID,93.8671,VALID,175.344,VALID,21.047,VALID,172,VALID,0.967969,
2015-03-25, 08:01:04,VALID,918.205,VALID,0,VALID,93.7756,VALID,172.443,VALID,21.0876,VALID,188,VALID,0.86875,
2015-03-25, 08:02:04,VALID,918.204,VALID,0,VALID,93.707,VALID,171.476,VALID,21.1055,VALID,197,VALID,1.18594,
2015-03-25, 08:03:04,VALID,918.227,VALID,0,VALID,93.707,VALID,172.013,VALID,21.1445,VALID,177,VALID,0.742969,
2015-03-25, 08:04:04,VALID,918.285,VALID,0,VALID,93.4326,VALID,172.873,VALID,21.1445,VALID,196,VALID,1.84102,
2015-03-25, 08:05:04,VALID,918.291,VALID,0,VALID,92.838,VALID,174.27,VALID,21.1445,VALID,153,VALID,1.3,
2015-03-25, 08:06:04,VALID,918.257,VALID,0,VALID,92.9981,VALID,175.881,VALID,21.1836,VALID,190,VALID,0.620703,
2015-03-25, 08:07:04,VALID,918.262,VALID,0,VALID,92.3196,VALID,177.923,VALID,21.2031,VALID,187,VALID,0.0105469,
2015-03-25, 08:08:04,VALID,918.29,VALID,0,VALID,91.885,VALID,180.823,VALID,21.2226,VALID,170,VALID,1.42539,
2015-03-25, 08:09:04,VALID,918.269,VALID,0,VALID,90.5509,VALID,184.369,VALID,21.2031,VALID,195,VALID,0.282422,
2015-03-25, 08:10:04,VALID,918.292,VALID,0,VALID,90.9397,VALID,188.559,VALID,21.2421,VALID,191,VALID,0.634375,
2015-03-25, 08:11:04,VALID,918.288,VALID,0,VALID,92.7922,VALID,194.468,VALID,21.3201,VALID,196,VALID,0,
2015-03-25, 08:12:04,VALID,918.297,VALID,0,VALID,93.0362,VALID,200.808,VALID,21.3396,VALID,188,VALID,0,
2015-03-25, 08:13:04,VALID,918.276,VALID,0,VALID,90.7568,VALID,206.072,VALID,21.3591,VALID,178,VALID,0.716797,
2015-03-25, 08:14:04,VALID,918.293,VALID,0,VALID,90.9397,VALID,206.287,VALID,21.4193,VALID,156,VALID,0,
2015-03-25, 08:15:04,VALID,918.268,VALID,0,VALID,91.0236,VALID,207.899,VALID,21.4583,VALID,168,VALID,0.0148437,
2015-03-25, 08:16:04,VALID,918.284,VALID,0,VALID,90.185,VALID,213.163,VALID,21.538,VALID,166,VALID,0,
2015-03-25, 08:17:04,VALID,918.329,VALID,0,VALID,90.3375,VALID,218.428,VALID,21.5754,VALID,176,VALID,0,
2015-03-25, 08:18:04,VALID,918.315,VALID,0,VALID,88.2258,VALID,220.039,VALID,21.5949,VALID,152,VALID,0.55,
2015-03-25, 08:19:04,VALID,918.349,VALID,0,VALID,87.7379,VALID,220.469,VALID,21.6128,VALID,182,VALID,1.28906,
2015-03-25, 08:20:04,VALID,918.318,VALID,0,VALID,87.2195,VALID,222.833,VALID,21.6518,VALID,190,VALID,0.980078,
2015-03-25, 08:21:04,VALID,918.337,VALID,0,VALID,86.3428,VALID,227.883,VALID,21.6729,VALID,160,VALID,1.09297,
2015-03-25, 08:22:04,VALID,918.303,VALID,0,VALID,86.6706,VALID,229.065,VALID,21.6924,VALID,157,VALID,0.220703,
2015-03-25, 08:23:04,VALID,918.356,VALID,0,VALID,87.433,VALID,229.387,VALID,21.7298,VALID,163,VALID,0.0574219,
2015-03-25, 08:24:04,VALID,918.377,VALID,0,VALID,87.6769,VALID,226.056,VALID,21.7705,VALID,183,VALID,0.620313,
2015-03-25, 08:25:04,VALID,918.378,VALID,0,VALID,86.4495,VALID,223.8,VALID,21.7917,VALID,166,VALID,1.35898,
2015-03-25, 08:26:04,VALID,918.36,VALID,0,VALID,87.6617,VALID,223.155,VALID,21.829,VALID,170,VALID,0.217187,
2015-03-25, 08:27:04,VALID,918.364,VALID,0,VALID,88.363,VALID,223.692,VALID,21.9283,VALID,174,VALID,0,
2015-03-25, 08:28:04,VALID,918.356,VALID,0,VALID,86.3581,VALID,226.916,VALID,21.8436,VALID,168,VALID,0.117969,
2015-03-25, 08:29:04,VALID,918.325,VALID,0,VALID,86.7545,VALID,230.891,VALID,21.9656,VALID,171,VALID,0.0015625,
2015-03-25, 08:30:04,VALID,918.365,VALID,0,VALID,86.5563,VALID,234.544,VALID,21.9818,VALID,141,VALID,0,
2015-03-25, 08:31:04,VALID,918.372,VALID,0,VALID,85.6262,VALID,238.949,VALID,21.964,VALID,157,VALID,0.0617188,
2015-03-25, 08:32:04,VALID,918.379,VALID,0,VALID,86.2666,VALID,245.181,VALID,22.0258,VALID,157,VALID,1.6832,
2015-03-25, 08:33:04,VALID,918.369,VALID,0,VALID,85.428,VALID,250.23,VALID,21.9818,VALID,179,VALID,1.77539,
2015-03-25, 08:34:04,VALID,918.398,VALID,0,VALID,85.6643,VALID,257.644,VALID,22.042,VALID,165,VALID,0.950391,
2015-03-25, 08:35:04,VALID,918.426,VALID,0,VALID,85.7329,VALID,263.123,VALID,22.1234,VALID,192,VALID,0.835547,
2015-03-25, 08:36:04,VALID,918.452,VALID,0,VALID,84.1015,VALID,265.38,VALID,22.0989,VALID,161,VALID,1.37031,
2015-03-25, 08:37:04,VALID,918.48,VALID,0,VALID,84.841,VALID,267.099,VALID,22.1396,VALID,164,VALID,1.36523,
2015-03-25, 08:38:04,VALID,918.479,VALID,0,VALID,84.1015,VALID,269.355,VALID,22.1786,VALID,162,VALID,0.0625,
2015-03-25, 08:39:04,VALID,918.48,VALID,0,VALID,82.775,VALID,270.752,VALID,22.2176,VALID,138,VALID,0.979297,
2015-03-25, 08:40:04,VALID,918.468,VALID,0,VALID,83.2858,VALID,274.297,VALID,22.2159,VALID,159,VALID,0,
2015-03-25, 08:41:04,VALID,918.509,VALID,0,VALID,83.6517,VALID,280.529,VALID,22.2762,VALID,137,VALID,0.0210938,
2015-03-25, 08:42:04,VALID,918.51,VALID,0,VALID,85.024,VALID,283.322,VALID,22.3737,VALID,160,VALID,0,
2015-03-25, 08:43:04,VALID,918.524,VALID,0,VALID,83.0495,VALID,284.719,VALID,22.3916,VALID,149,VALID,0.0183594,
2015-03-25, 08:44:04,VALID,918.543,VALID,0,VALID,82.5311,VALID,282.14,VALID,22.4323,VALID,141,VALID,0.00078125,
2015-03-25, 08:45:04,VALID,918.531,VALID,0,VALID,83.8347,VALID,283,VALID,22.4908,VALID,108,VALID,0.00117188,
2015-03-25, 08:46:04,VALID,918.554,VALID,0,VALID,84.01,VALID,282.033,VALID,22.5103,VALID,153,VALID,0.462109,
2015-03-25, 08:47:04,VALID,918.576,VALID,0,VALID,82.6683,VALID,282.355,VALID,22.5299,VALID,152,VALID,0.280469,
2015-03-25, 08:48:04,VALID,918.532,VALID,0,VALID,82.5387,VALID,285.471,VALID,22.4908,VALID,156,VALID,0.775391,
2015-03-25, 08:49:04,VALID,918.581,VALID,0,VALID,82.2185,VALID,297.827,VALID,22.4713,VALID,144,VALID,0.654297,
2015-03-25, 08:50:04,VALID,918.596,VALID,0,VALID,83.8576,VALID,380.342,VALID,22.4891,VALID,119,VALID,0.393359,
2015-03-25, 08:51:04,VALID,918.588,VALID,0,VALID,82.5235,VALID,423.64,VALID,22.5299,VALID,174,VALID,0.380469,
2015-03-25, 08:52:04,VALID,918.556,VALID,0,VALID,82.4091,VALID,436.319,VALID,22.6257,VALID,179,VALID,0.258984,
2015-03-25, 08:53:04,VALID,918.57,VALID,0,VALID,81.7001,VALID,421.921,VALID,22.7233,VALID,166,VALID,0,
2015-03-25, 08:54:04,VALID,918.54,VALID,0,VALID,81.3876,VALID,423.103,VALID,22.8209,VALID,136,VALID,0,
2015-03-25, 08:55:04,VALID,918.539,VALID,0,VALID,81.0522,VALID,446.525,VALID,22.8599,VALID,103,VALID,0.503125,
2015-03-25, 08:56:04,VALID,918.536,VALID,0,VALID,84.3074,VALID,535.057,VALID,22.8599,VALID,96,VALID,0.112109,
2015-03-25, 08:57:04,VALID,918.49,VALID,0,VALID,84.4903,VALID,553.429,VALID,22.977,VALID,52,VALID,0,
2015-03-25, 08:58:04,VALID,918.532,VALID,0,VALID,84.4979,VALID,560.198,VALID,23.1136,VALID,57,VALID,0,
2015-03-25, 08:59:04,VALID,918.535,VALID,0,VALID,82.7522,VALID,563.529,VALID,23.2307,VALID,26,VALID,0,
2015-03-25, 09:00:04,VALID,918.513,VALID,0,VALID,81.0369,VALID,530.33,VALID,23.2875,VALID,96,VALID,0,